QPF
0.00 0.01 0.02 0.06 0.09 0.09 0.04 0.02 0.03 0.02 0.01 0.01 0.00 0.00 0.01 0.04 0.08 0.08 0.05 0.03 0.04 0.03 0.04 0.04 0.06 0.07 0.08 0.09 0.11 0.11 0.10 0.10 0.10 0.10 0.11 0.10 0.07 0.06 0.05 0.05 0.05 0.05 0.04 0.04 0.04 0.05 0.05 0.04 0.04
0.01 0.02 0.03 0.08 0.09 0.06 0.05 0.03 0.03 0.02 0.00 0.00 0.00 0.00 0.00 0.01 0.02 0.03 0.03 0.03 0.04 0.03 0.03 0.03 0.04 0.06 0.07 0.08 0.10 0.11 0.10 0.09 0.09 0.08 0.07 0.06 0.05 0.04 0.05 0.05 0.06 0.05 0.04 0.04 0.05 0.06 0.05 0.05 0.05
0.02 0.02 0.04 0.05 0.05 0.04 0.04 0.04 0.03 0.00 0.00 0.00 0.00 0.00 0.00 0.01 0.01 0.02 0.03 0.05 0.04 0.02 0.02 0.02 0.04 0.05 0.07 0.08 0.09 0.09 0.10 0.09 0.09 0.09 0.08 0.06 0.04 0.04 0.04 0.04 0.04 0.03 0.03 0.04 0.03 0.07 0.06 0.05 0.05
0.02 0.03 0.03 0.04 0.03 0.02 0.01 0.02 0.00 0.00 0.00 0.00 0.00 0.00 0.00 0.01 0.02 0.02 0.03 0.05 0.04 0.02 0.01 0.01 0.03 0.04 0.05 0.06 0.07 0.07 0.07 0.08 0.07 0.08 0.09 0.10 0.08 0.07 0.04 0.04 0.04 0.03 0.03 0.03 0.03 0.06 0.06 0.04 0.04
0.02 0.06 0.06 0.04 0.02 0.02 0.00 0.00 0.00 0.00 0.00 0.00 0.00 0.00 0.01 0.02 0.03 0.01 0.01 0.02 0.02 0.02 0.02 0.01 0.02 0.02 0.03 0.04 0.06 0.05 0.05 0.06 0.06 0.06 0.06 0.07 0.09 0.08 0.06 0.05 0.05 0.03 0.03 0.03 0.03 0.05 0.05 0.03 0.04
0.06 0.07 0.05 0.02 0.01 0.01 0.00 0.00 0.00 0.00 0.00 0.00 0.00 0.00 0.01 0.03 0.03 0.01 0.01 0.01 0.01 0.01 0.01 0.01 0.02 0.03 0.03 0.04 0.04 0.06 0.07 0.07 0.08 0.05 0.05 0.06 0.08 0.06 0.05 0.05 0.05 0.03 0.02 0.03 0.04 0.04 0.03 0.03 0.03
0.03 0.04 0.02 0.01 0.01 0.01 0.00 0.00 0.00 0.00 0.00 0.00 0.00 0.00 0.01 0.02 0.01 0.01 0.01 0.01 0.01 0.00 0.00 0.01 0.02 0.03 0.02 0.03 0.04 0.05 0.07 0.08 0.06 0.04 0.05 0.04 0.07 0.06 0.04 0.04 0.04 0.05 0.03 0.03 0.03 0.04 0.02 0.02 0.03
0.00 0.01 0.01 0.00 0.01 0.01 0.00 0.00 0.00 0.00 0.00 0.00 0.00 0.00 0.01 0.00 0.00 0.00 0.01 0.01 0.00 0.00 0.01 0.02 0.03 0.04 0.05 0.06 0.04 0.04 0.03 0.02 0.03 0.04 0.05 0.03 0.04 0.05 0.04 0.04 0.04 0.04 0.06 0.05 0.04 0.04 0.03 0.02 0.02
0.00 0.00 0.00 0.00 0.00 0.00 0.00 0.00 0.00 0.00 0.00 0.00 0.00 0.00 0.00 0.00 0.00 0.00 0.01 0.01 0.01 0.02 0.02 0.01 0.02 0.04 0.06 0.06 0.04 0.03 0.02 0.01 0.02 0.04 0.04 0.04 0.08 0.09 0.10 0.07 0.04 0.04 0.06 0.07 0.06 0.05 0.03 0.02 0.02
0.00 0.00 0.00 0.00 0.00 0.00 0.00 0.00 0.00 0.00 0.00 0.00 0.00 0.00 0.00 0.00 0.00 0.00 0.01 0.02 0.03 0.04 0.02 0.01 0.00 0.01 0.02 0.04 0.04 0.06 0.05 0.05 0.06 0.07 0.06 0.07 0.08 0.13 0.12 0.10 0.06 0.05 0.05 0.06 0.06 0.06 0.03 0.03 0.04
0.00 0.00 0.00 0.00 0.00 0.00 0.00 0.00 0.00 0.00 0.00 0.00 0.00 0.00 0.00 0.00 0.00 0.00 0.01 0.02 0.02 0.02 0.01 0.01 0.01 0.01 0.02 0.04 0.05 0.06 0.07 0.09 0.08 0.09 0.09 0.08 0.05 0.07 0.13 0.15 0.11 0.08 0.07 0.07 0.04 0.04 0.03 0.04 0.04
0.00 0.00 0.00 0.00 0.00 0.00 0.00 0.00 0.00 0.00 0.00 0.00 0.00 0.00 0.00 0.00 0.00 0.01 0.00 0.01 0.01 0.01 0.00 0.00 0.01 0.02 0.02 0.04 0.05 0.05 0.05 0.07 0.06 0.08 0.08 0.06 0.07 0.08 0.09 0.11 0.13 0.10 0.09 0.09 0.07 0.06 0.05 0.03 0.02
0.00 0.00 0.00 0.00 0.00 0.00 0.00 0.00 0.00 0.00 0.00 0.00 0.00 0.00 0.00 0.00 0.00 0.00 0.00 0.00 0.01 0.00 0.00 0.01 0.01 0.01 0.03 0.06 0.07 0.04 0.04 0.05 0.04 0.06 0.07 0.05 0.07 0.08 0.08 0.09 0.08 0.06 0.05 0.05 0.07 0.06 0.07 0.05 0.04
0.00 0.00 0.00 0.00 0.00 0.00 0.00 0.00 0.00 0.00 0.00 0.00 0.00 0.00 0.00 0.00 0.00 0.00 0.00 0.00 0.00 0.00 0.00 0.01 0.01 0.02 0.03 0.05 0.06 0.06 0.04 0.04 0.04 0.05 0.05 0.05 0.07 0.07 0.08 0.08 0.08 0.06 0.05 0.05 0.07 0.06 0.08 0.07 0.06
0.00 0.00 0.00 0.00 0.00 0.00 0.00 0.00 0.00 0.00 0.00 0.00 0.00 0.00 0.00 0.00 0.00 0.00 0.00 0.00 0.00 0.00 0.00 0.00 0.01 0.01 0.03 0.04 0.03 0.05 0.05 0.03 0.04 0.06 0.06 0.06 0.05 0.07 0.08 0.08 0.08 0.06 0.05 0.06 0.06 0.07 0.08 0.07 0.06
0.00 0.00 0.00 0.00 0.00 0.00 0.00 0.00 0.00 0.00 0.00 0.00 0.00 0.00 0.00 0.00 0.00 0.00 0.00 0.00 0.00 0.00 0.00 0.00 0.00 0.01 0.02 0.04 0.03 0.04 0.04 0.05 0.09 0.09 0.07 0.07 0.05 0.05 0.07 0.07 0.07 0.07 0.05 0.07 0.08 0.07 0.07 0.07 0.07
0.00 0.00 0.00 0.00 0.00 0.00 0.00 0.00 0.00 0.00 0.00 0.00 0.00 0.00 0.00 0.00 0.00 0.00 0.00 0.00 0.00 0.00 0.00 0.01 0.02 0.02 0.01 0.02 0.03 0.04 0.05 0.05 0.06 0.05 0.06 0.07 0.05 0.05 0.06 0.06 0.07 0.06 0.05 0.06 0.05 0.07 0.08 0.08 0.08
0.01 0.00 0.00 0.00 0.00 0.00 0.00 0.00 0.00 0.00 0.00 0.00 0.00 0.00 0.00 0.00 0.00 0.00 0.00 0.00 0.00 0.00 0.00 0.00 0.02 0.03 0.02 0.01 0.02 0.03 0.04 0.04 0.04 0.05 0.07 0.05 0.05 0.07 0.07 0.06 0.08 0.07 0.07 0.06 0.05 0.07 0.08 0.08 0.06
0.01 0.00 0.00 0.00 0.00 0.00 0.00 0.00 0.00 0.00 0.00 0.00 0.00 0.00 0.00 0.00 0.00 0.00 0.00 0.00 0.00 0.00 0.00 0.01 0.02 0.02 0.02 0.02 0.03 0.04 0.04 0.04 0.04 0.05 0.06 0.06 0.06 0.08 0.09 0.07 0.10 0.08 0.06 0.06 0.05 0.07 0.08 0.07 0.06
0.00 0.00 0.00 0.00 0.00 0.00 0.00 0.00 0.00 0.00 0.00 0.00 0.00 0.00 0.00 0.00 0.00 0.00 0.00 0.00 0.00 0.00 0.00 0.01 0.01 0.01 0.01 0.01 0.03 0.04 0.04 0.03 0.04 0.05 0.08 0.07 0.07 0.08 0.08 0.09 0.07 0.07 0.08 0.07 0.08 0.09 0.09 0.08 0.07
0.00 0.00 0.00 0.00 0.00 0.00 0.00 0.00 0.00 0.00 0.00 0.00 0.00 0.00 0.00 0.00 0.00 0.00 0.00 0.00 0.00 0.00 0.00 0.00 0.01 0.01 0.01 0.01 0.01 0.02 0.03 0.04 0.05 0.05 0.05 0.05 0.05 0.07 0.07 0.08 0.08 0.10 0.09 0.10 0.10 0.10 0.10 0.10 0.09
0.00 0.00 0.00 0.00 0.00 0.00 0.00 0.00 0.00 0.00 0.00 0.00 0.00 0.00 0.00 0.00 0.00 0.00 0.00 0.00 0.00 0.00 0.00 0.00 0.01 0.01 0.01 0.01 0.01 0.02 0.03 0.04 0.03 0.03 0.04 0.05 0.05 0.04 0.05 0.05 0.06 0.09 0.07 0.07 0.05 0.08 0.10 0.11 0.11
0.00 0.00 0.00 0.00 0.00 0.01 0.00 0.00 0.00 0.00 0.00 0.00 0.00 0.00 0.00 0.00 0.00 0.00 0.00 0.00 0.00 0.00 0.00 0.00 0.01 0.01 0.01 0.02 0.03 0.03 0.03 0.04 0.03 0.02 0.04 0.05 0.06 0.06 0.04 0.04 0.05 0.07 0.06 0.06 0.06 0.08 0.08 0.07 0.09
0.00 0.00 0.00 0.00 0.00 0.01 0.01 0.00 0.00 0.00 0.00 0.00 0.00 0.00 0.00 0.00 0.00 0.00 0.00 0.00 0.00 0.00 0.00 0.00 0.00 0.01 0.01 0.01 0.02 0.03 0.04 0.04 0.04 0.05 0.05 0.03 0.05 0.04 0.04 0.05 0.05 0.05 0.05 0.07 0.07 0.08 0.08 0.08 0.08
0.00 0.00 0.00 0.01 0.01 0.01 0.01 0.00 0.00 0.00 0.00 0.00 0.00 0.00 0.00 0.00 0.00 0.00 0.00 0.00 0.00 0.00 0.00 0.01 0.01 0.01 0.01 0.01 0.01 0.02 0.03 0.03 0.03 0.02 0.03 0.02 0.02 0.02 0.03 0.05 0.06 0.06 0.07 0.06 0.08 0.08 0.08 0.07 0.07
0.00 0.00 0.00 0.01 0.01 0.01 0.01 0.01 0.01 0.00 0.00 0.00 0.00 0.00 0.00 0.00 0.00 0.00 0.00 0.00 0.00 0.00 0.00 0.01 0.01 0.01 0.01 0.01 0.02 0.03 0.03 0.02 0.01 0.02 0.02 0.02 0.01 0.01 0.03 0.05 0.05 0.05 0.05 0.05 0.06 0.05 0.05 0.05 0.06
0.00 0.00 0.00 0.00 0.00 0.01 0.01 0.01 0.01 0.00 0.00 0.00 0.00 0.00 0.00 0.00 0.00 0.00 0.00 0.00 0.00 0.00 0.01 0.01 0.00 0.00 0.00 0.01 0.01 0.02 0.03 0.02 0.02 0.02 0.02 0.01 0.02 0.02 0.03 0.03 0.03 0.04 0.03 0.04 0.04 0.05 0.04 0.04 0.04
0.00 0.00 0.00 0.00 0.00 0.00 0.00 0.00 0.00 0.01 0.01 0.00 0.00 0.00 0.00 0.00 0.00 0.01 0.01 0.01 0.01 0.00 0.01 0.01 0.00 0.00 0.00 0.00 0.00 0.01 0.02 0.02 0.03 0.02 0.02 0.02 0.02 0.02 0.02 0.02 0.02 0.02 0.02 0.03 0.04 0.04 0.04 0.03 0.03
0.00 0.00 0.00 0.00 0.00 0.00 0.00 0.01 0.02 0.05 0.02 0.00 0.00 0.00 0.00 0.00 0.00 0.00 0.00 0.00 0.01 0.01 0.01 0.01 0.00 0.00 0.01 0.01 0.00 0.00 0.01 0.01 0.02 0.02 0.02 0.02 0.02 0.02 0.02 0.03 0.04 0.03 0.04 0.05 0.04 0.04 0.03 0.03 0.03
0.00 0.00 0.00 0.00 0.00 0.00 0.00 0.01 0.01 0.03 0.02 0.00 0.00 0.00 0.00 0.00 0.00 0.00 0.00 0.00 0.01 0.01 0.01 0.01 0.01 0.01 0.01 0.01 0.01 0.01 0.00 0.01 0.01 0.02 0.02 0.02 0.02 0.02 0.03 0.04 0.04 0.04 0.04 0.05 0.06 0.05 0.04 0.04 0.04
MSLP
1002.99 1003.78 1004.69 1005.58 1006.33 1006.84 1007.08 1007.08 1006.93 1006.74 1006.61 1006.63 1006.80 1007.11 1007.49 1007.86 1008.18 1008.41 1008.57 1008.73 1008.95 1009.29 1009.77 1010.39 1011.07 1011.72 1012.28 1012.67 1012.86 1012.89 1012.82 1012.72 1012.67 1012.72 1012.88 1013.11 1013.37 1013.60 1013.77 1013.85 1013.87 1013.86 1013.88 1013.97 1014.15 1014.40 1014.70 1014.99 1015.24
1002.95 1003.88 1004.89 1005.83 1006.57 1007.03 1007.18 1007.07 1006.80 1006.49 1006.25 1006.17 1006.26 1006.49 1006.80 1007.12 1007.40 1007.62 1007.81 1008.03 1008.35 1008.80 1009.42 1010.15 1010.94 1011.68 1012.28 1012.70 1012.90 1012.94 1012.87 1012.78 1012.75 1012.81 1012.98 1013.22 1013.47 1013.68 1013.81 1013.86 1013.84 1013.82 1013.84 1013.94 1014.14 1014.42 1014.73 1015.03 1015.27
1003.04 1004.08 1005.16 1006.14 1006.87 1007.27 1007.35 1007.15 1006.79 1006.40 1006.09 1005.95 1005.98 1006.15 1006.41 1006.68 1006.92 1007.12 1007.31 1007.55 1007.90 1008.41 1009.08 1009.88 1010.72 1011.51 1012.15 1012.59 1012.83 1012.90 1012.87 1012.82 1012.82 1012.91 1013.09 1013.31 1013.53 1013.69 1013.77 1013.78 1013.75 1013.73 1013.77 1013.92 1014.16 1014.49 1014.83 1015.15 1015.39
1003.25 1004.35 1005.48 1006.46 1007.17 1007.54 1007.56 1007.32 1006.91 1006.49 1006.15 1005.98 1005.98 1006.12 1006.33 1006.56 1006.75 1006.91 1007.07 1007.28 1007.62 1008.13 1008.80 1009.60 1010.45 1011.25 1011.91 1012.39 1012.67 1012.80 1012.83 1012.84 1012.89 1013.01 1013.19 1013.38 1013.55 1013.65 1013.69 1013.66 1013.62 1013.63 1013.73 1013.94 1014.26 1014.65 1015.04 1015.37 1015.60
1003.50 1004.63 1005.75 1006.71 1007.40 1007.74 1007.75 1007.50 1007.11 1006.70 1006.38 1006.22 1006.22 1006.34 1006.53 1006.71 1006.86 1006.96 1007.07 1007.24 1007.53 1007.99 1008.62 1009.38 1010.19 1010.96 1011.63 1012.12 1012.45 1012.64 1012.75 1012.83 1012.94 1013.08 1013.25 1013.42 1013.54 1013.59 1013.57 1013.52 1013.50 1013.55 1013.73 1014.03 1014.44 1014.90 1015.34 1015.68 1015.90
1003.73 1004.81 1005.89 1006.80 1007.46 1007.79 1007.82 1007.61 1007.27 1006.93 1006.68 1006.57 1006.59 1006.73 1006.90 1007.05 1007.15 1007.20 1007.25 1007.36 1007.59 1007.99 1008.55 1009.24 1009.99 1010.72 1011.35 1011.86 1012.21 1012.46 1012.63 1012.77 1012.93 1013.10 1013.27 1013.40 1013.48 1013.49 1013.44 1013.39 1013.40 1013.51 1013.77 1014.17 1014.67 1015.20 1015.68 1016.03 1016.21
1003.86 1004.85 1005.82 1006.66 1007.27 1007.60 1007.67 1007.53 1007.30 1007.07 1006.92 1006.89 1006.97 1007.13 1007.30 1007.43 1007.50 1007.51 1007.52 1007.59 1007.77 1008.11 1008.60 1009.22 1009.89 1010.56 1011.15 1011.63 1011.99 1012.25 1012.47 1012.65 1012.84 1013.03 1013.20 1013.32 1013.38 1013.36 1013.31 1013.27 1013.32 1013.49 1013.83 1014.31 1014.89 1015.47 1015.98 1016.32 1016.47
1003.85 1004.69 1005.53 1006.26 1006.80 1007.13 1007.24 1007.21 1007.10 1007.00 1006.98 1007.06 1007.22 1007.42 1007.61 1007.74 1007.80 1007.81 1007.80 1007.85 1008.01 1008.31 1008.75 1009.30 1009.91 1010.50 1011.03 1011.46 1011.79 1012.05 1012.27 1012.48 1012.69 1012.89 1013.07 1013.19 1013.24 1013.23 1013.19 1013.18 1013.27 1013.50 1013.90 1014.44 1015.06 1015.67 1016.18 1016.50 1016.61
1003.70 1004.37 1005.04 1005.64 1006.10 1006.40 1006.57 1006.63 1006.66 1006.71 1006.83 1007.03 1007.27 1007.54 1007.76 1007.91 1007.99 1008.01 1008.02 1008.09 1008.25 1008.55 1008.96 1009.47 1010.02 1010.54 1010.99 1011.35 1011.63 1011.86 1012.06 1012.26 1012.48 1012.69 1012.89 1013.03 1013.10 1013.12 1013.11 1013.14 1013.27 1013.55 1013.98 1014.55 1015.18 1015.79 1016.27 1016.56 1016.63
1003.48 1003.96 1004.45 1004.90 1005.26 1005.52 1005.71 1005.86 1006.02 1006.21 1006.47 1006.79 1007.13 1007.46 1007.73 1007.92 1008.03 1008.09 1008.15 1008.25 1008.46 1008.77 1009.19 1009.68 1010.18 1010.63 1011.01 1011.30 1011.51 1011.67 1011.83 1012.02 1012.23 1012.46 1012.68 1012.87 1012.99 1013.06 1013.11 1013.19 1013.36 1013.66 1014.10 1014.65 1015.26 1015.83 1016.27 1016.52 1016.55
1003.26 1003.58 1003.89 1004.17 1004.41 1004.62 1004.82 1005.02 1005.27 1005.59 1005.97 1006.39 1006.83 1007.23 1007.55 1007.79 1007.95 1008.06 1008.17 1008.34 1008.59 1008.94 1009.38 1009.86 1010.33 1010.73 1011.04 1011.26 1011.39 1011.50 1011.61 1011.76 1011.98 1012.23 1012.50 1012.74 1012.94 1013.09 1013.21 1013.35 1013.55 1013.85 1014.27 1014.79 1015.34 1015.84 1016.23 1016.42 1016.42
1003.16 1003.32 1003.46 1003.59 1003.71 1003.84 1004.01 1004.24 1004.55 1004.95 1005.42 1005.93 1006.45 1006.91 1007.29 1007.58 1007.79 1007.95 1008.12 1008.34 1008.64 1009.03 1009.50 1009.98 1010.43 1010.79 1011.05 1011.20 1011.28 1011.33 1011.40 1011.53 1011.75 1012.03 1012.36 1012.68 1012.97 1013.21 1013.41 1013.61 1013.84 1014.14 1014.52 1014.97 1015.44 1015.87 1016.19 1016.34 1016.31
1003.23 1003.28 1003.28 1003.26 1003.26 1003.29 1003.41 1003.62 1003.95 1004.40 1004.93 1005.51 1006.07 1006.59 1007.02 1007.35 1007.61 1007.81 1008.02 1008.28 1008.62 1009.04 1009.51 1009.99 1010.43 1010.77 1011.00 1011.12 1011.15 1011.17 1011.22 1011.34 1011.57 1011.89 1012.27 1012.68 1013.06 1013.40 1013.69 1013.94 1014.20 1014.48 1014.82 1015.20 1015.59 1015.94 1016.19 1016.29 1016.24
1003.53 1003.49 1003.38 1003.23 1003.11 1003.04 1003.08 1003.25 1003.56 1004.01 1004.56 1005.16 1005.77 1006.32 1006.79 1007.16 1007.45 1007.69 1007.92 1008.20 1008.55 1008.97 1009.44 1009.91 1010.34 1010.67 1010.89 1010.99 1011.03 1011.03 1011.08 1011.21 1011.45 1011.81 1012.25 1012.72 1013.19 1013.61 1013.97 1014.28 1014.55 1014.83 1015.12 1015.43 1015.75 1016.03 1016.22 1016.29 1016.23
1003.99 1003.90 1003.70 1003.46 1003.23 1003.07 1003.02 1003.11 1003.37 1003.78 1004.31 1004.91 1005.53 1006.11 1006.62 1007.02 1007.34 1007.60 1007.85 1008.12 1008.46 1008.85 1009.30 1009.76 1010.17 1010.51 1010.74 1010.86 1010.91 1010.94 1011.00 1011.15 1011.41 1011.79 1012.26 1012.78 1013.30 1013.78 1014.20 1014.54 1014.84 1015.10 1015.36 1015.62 1015.87 1016.09 1016.25 1016.30 1016.24
1004.55 1004.41 1004.16 1003.85 1003.55 1003.30 1003.16 1003.17 1003.34 1003.68 1004.16 1004.73 1005.35 1005.94 1006.47 1006.91 1007.27 1007.55 1007.80 1008.07 1008.38 1008.74 1009.15 1009.58 1009.99 1010.33 1010.59 1010.76 1010.85 1010.92 1011.02 1011.19 1011.46 1011.84 1012.31 1012.84 1013.38 1013.88 1014.32 1014.69 1014.99 1015.24 1015.47 1015.69 1015.91 1016.10 1016.23 1016.29 1016.24
1005.06 1004.91 1004.64 1004.31 1003.96 1003.66 1003.44 1003.36 1003.43 1003.67 1004.06 1004.57 1005.15 1005.74 1006.30 1006.79 1007.19 1007.51 1007.79 1008.05 1008.33 1008.65 1009.02 1009.42 1009.82 1010.18 1010.48 1010.71 1010.87 1011.00 1011.14 1011.32 1011.59 1011.96 1012.40 1012.90 1013.41 1013.90 1014.33 1014.69 1014.99 1015.23 1015.45 1015.65 1015.84 1016.02 1016.16 1016.23 1016.21
1005.44 1005.29 1005.04 1004.74 1004.40 1004.07 1003.80 1003.62 1003.57 1003.68 1003.95 1004.36 1004.89 1005.47 1006.05 1006.59 1007.06 1007.45 1007.76 1008.04 1008.31 1008.61 1008.95 1009.32 1009.71 1010.10 1010.44 1010.74 1010.98 1011.18 1011.36 1011.57 1011.82 1012.14 1012.53 1012.96 1013.41 1013.85 1014.24 1014.58 1014.86 1015.10 1015.30 1015.50 1015.69 1015.87 1016.02 1016.13 1016.15
1005.60 1005.50 1005.33 1005.10 1004.82 1004.51 1004.20 1003.92 1003.74 1003.69 1003.80 1004.08 1004.52 1005.07 1005.67 1006.27 1006.83 1007.30 1007.70 1008.02 1008.31 1008.61 1008.93 1009.28 1009.67 1010.08 1010.48 1010.84 1011.16 1011.43 1011.66 1011.89 1012.12 1012.39 1012.70 1013.05 1013.41 1013.77 1014.11 1014.41 1014.67 1014.89 1015.10 1015.29 1015.49 1015.69 1015.87 1016.01 1016.08
1005.53 1005.53 1005.49 1005.41 1005.24 1004.98 1004.65 1004.29 1003.95 1003.71 1003.62 1003.73 1004.04 1004.53 1005.13 1005.80 1006.45 1007.04 1007.54 1007.95 1008.29 1008.61 1008.93 1009.28 1009.67 1010.11 1010.55 1010.98 1011.37 1011.71 1011.99 1012.24 1012.46 1012.67 1012.90 1013.15 1013.43 1013.71 1013.98 1014.24 1014.47 1014.69 1014.89 1015.10 1015.31 1015.52 1015.73 1015.91 1016.03
1005.27 1005.43 1005.60 1005.70 1005.69 1005.52 1005.19 1004.73 1004.22 1003.75 1003.43 1003.32 1003.46 1003.85 1004.44 1005.15 1005.90 1006.62 1007.25 1007.78 1008.20 1008.57 1008.91 1009.27 1009.67 1010.12 1010.60 1011.09 1011.54 1011.95 1012.28 1012.55 1012.75 1012.93 1013.09 1013.26 1013.45 1013.66 1013.87 1014.10 1014.32 1014.53 1014.74 1014.95 1015.17 1015.40 1015.63 1015.83 1016.00
1004.92 1005.30 1005.71 1006.05 1006.22 1006.16 1005.83 1005.27 1004.57 1003.85 1003.25 1002.89 1002.82 1003.07 1003.61 1004.35 1005.19 1006.04 1006.81 1007.47 1008.00 1008.44 1008.82 1009.19 1009.60 1010.07 1010.57 1011.09 1011.60 1012.06 1012.44 1012.73 1012.94 1013.09 1013.21 1013.32 1013.45 1013.60 1013.78 1013.98 1014.20 1014.42 1014.64 1014.87 1015.09 1015.33 1015.56 1015.78 1015.97
1004.57 1005.20 1005.88 1006.48 1006.84 1006.88 1006.55 1005.88 1004.98 1004.00 1003.11 1002.46 1002.16 1002.24 1002.70 1003.43 1004.35 1005.31 1006.22 1007.01 1007.66 1008.17 1008.61 1009.01 1009.43 1009.89 1010.41 1010.95 1011.49 1011.99 1012.40 1012.72 1012.94 1013.09 1013.18 1013.26 1013.36 1013.49 1013.65 1013.85 1014.08 1014.32 1014.56 1014.79 1015.02 1015.25 1015.47 1015.69 1015.90
1004.29 1005.18 1006.13 1006.96 1007.50 1007.62 1007.27 1006.49 1005.40 1004.16 1002.98 1002.05 1001.50 1001.41 1001.75 1002.46 1003.41 1004.46 1005.49 1006.41 1007.16 1007.77 1008.26 1008.69 1009.11 1009.58 1010.09 1010.65 1011.20 1011.72 1012.16 1012.50 1012.73 1012.88 1012.97 1013.04 1013.13 1013.25 1013.43 1013.64 1013.89 1014.15 1014.41 1014.66 1014.89 1015.10 1015.31 1015.51 1015.70
1004.09 1005.21 1006.39 1007.41 1008.08 1008.26 1007.89 1007.01 1005.74 1004.27 1002.83 1001.65 1000.88 1000.60 1000.83 1001.48 1002.44 1003.56 1004.67 1005.69 1006.55 1007.23 1007.78 1008.24 1008.68 1009.14 1009.65 1010.20 1010.75 1011.27 1011.72 1012.07 1012.32 1012.47 1012.57 1012.64 1012.74 1012.87 1013.06 1013.31 1013.59 1013.88 1014.16 1014.41 1014.64 1014.83 1015.01 1015.17 1015.35
1003.95 1005.24 1006.57 1007.71 1008.45 1008.65 1008.26 1007.29 1005.88 1004.25 1002.63 1001.25 1000.30 999.87 999.98 1000.57 1001.51 1002.65 1003.82 1004.90 1005.83 1006.59 1007.19 1007.69 1008.15 1008.62 1009.12 1009.66 1010.20 1010.72 1011.17 1011.52 1011.76 1011.92 1012.02 1012.10 1012.20 1012.35 1012.57 1012.84 1013.15 1013.47 1013.77 1014.03 1014.25 1014.42 1014.56 1014.68 1014.82
1003.80 1005.18 1006.56 1007.73 1008.49 1008.68 1008.25 1007.24 1005.77 1004.05 1002.33 1000.84 999.78 999.24 999.26 999.78 1000.68 1001.80 1002.98 1004.10 1005.08 1005.89 1006.54 1007.08 1007.57 1008.06 1008.56 1009.10 1009.63 1010.13 1010.57 1010.91 1011.15 1011.30 1011.40 1011.48 1011.59 1011.75 1011.98 1012.27 1012.61 1012.95 1013.27 1013.54 1013.74 1013.89 1013.99 1014.07 1014.16
1003.59 1004.94 1006.28 1007.40 1008.11 1008.27 1007.83 1006.82 1005.36 1003.66 1001.95 1000.46 999.36 998.78 998.73 999.18 1000.01 1001.08 1002.23 1003.34 1004.33 1005.17 1005.86 1006.44 1006.97 1007.48 1008.01 1008.55 1009.09 1009.59 1010.02 1010.35 1010.57 1010.72 1010.80 1010.88 1010.99 1011.15 1011.39 1011.69 1012.04 1012.39 1012.72 1012.99 1013.18 1013.31 1013.38 1013.42 1013.46
1003.27 1004.50 1005.70 1006.70 1007.32 1007.44 1007.01 1006.07 1004.72 1003.14 1001.54 1000.15 999.11 998.53 998.45 998.82 999.56 1000.53 1001.60 1002.65 1003.61 1004.44 1005.15 1005.78 1006.35 1006.91 1007.48 1008.05 1008.61 1009.11 1009.55 1009.87 1010.10 1010.23 1010.31 1010.39 1010.48 1010.64 1010.87 1011.17 1011.52 1011.87 1012.19 1012.46 1012.65 1012.75 1012.79 1012.79 1012.79
1002.87 1003.90 1004.91 1005.73 1006.24 1006.33 1005.95 1005.13 1003.96 1002.59 1001.21 999.99 999.07 998.55 998.45 998.74 999.36 1000.19 1001.12 1002.06 1002.94 1003.73 1004.44 1005.09 1005.70 1006.31 1006.94 1007.55 1008.15 1008.68 1009.14 1009.48 1009.71 1009.86 1009.95 1010.02 1010.11 1010.26 1010.48 1010.77 1011.09 1011.43 1011.75 1012.00 1012.17 1012.27 1012.29 1012.26 1012.22
Thickness
5847 5847 5843 5833 5813 5806 5803 5810 5816 5812 5812 5820 5821 5813 5796 5787 5776 5761 5784 5792 5788 5783 5776 5772 5770 5768 5767 5766 5765 5765 5764 5764 5764 5763 5763 5763 5762 5761 5761 5760 5760 5759 5758 5757 5757 5756 5755 5754 5754
5857 5854 5842 5828 5812 5799 5799 5814 5811 5814 5821 5827 5822 5812 5798 5788 5791 5786 5788 5791 5790 5784 5778 5773 5769 5768 5766 5765 5764 5764 5763 5762 5762 5762 5762 5761 5761 5760 5759 5759 5758 5758 5757 5756 5756 5755 5754 5753 5753
5859 5857 5836 5828 5823 5808 5804 5818 5819 5825 5831 5825 5814 5809 5797 5788 5791 5790 5793 5794 5791 5784 5777 5772 5769 5767 5766 5765 5763 5762 5762 5761 5761 5761 5760 5760 5759 5759 5759 5758 5757 5757 5756 5756 5755 5754 5753 5753 5752
5860 5850 5842 5835 5821 5826 5826 5829 5832 5825 5826 5827 5816 5799 5796 5801 5797 5796 5798 5796 5790 5784 5777 5771 5769 5767 5765 5764 5763 5761 5761 5760 5760 5759 5759 5758 5758 5758 5758 5757 5757 5756 5756 5755 5754 5753 5753 5752 5751
5862 5846 5834 5830 5827 5835 5841 5842 5839 5825 5822 5822 5812 5792 5787 5799 5803 5801 5799 5796 5790 5785 5778 5771 5769 5767 5765 5763 5762 5760 5760 5759 5759 5758 5758 5757 5757 5757 5757 5757 5756 5755 5755 5754 5754 5752 5752 5751 5751
5852 5854 5835 5825 5828 5838 5844 5847 5840 5827 5822 5821 5810 5793 5787 5800 5800 5800 5799 5796 5793 5787 5780 5772 5768 5767 5765 5763 5761 5760 5759 5759 5758 5757 5757 5756 5756 5756 5756 5756 5755 5755 5754 5753 5753 5752 5751 5751 5750
5855 5852 5842 5839 5831 5833 5842 5851 5840 5830 5822 5823 5820 5798 5792 5799 5802 5803 5800 5797 5794 5790 5782 5775 5770 5767 5765 5763 5762 5760 5759 5759 5758 5757 5757 5757 5756 5756 5756 5755 5755 5755 5754 5753 5752 5751 5751 5750 5750
5883 5865 5849 5845 5835 5833 5849 5851 5847 5837 5827 5837 5832 5805 5792 5800 5807 5805 5800 5796 5793 5790 5786 5780 5776 5771 5768 5765 5762 5761 5760 5759 5758 5758 5757 5757 5757 5757 5756 5755 5755 5755 5754 5753 5752 5751 5750 5750 5750
5897 5863 5845 5847 5843 5842 5854 5847 5847 5851 5839 5836 5835 5825 5815 5814 5810 5802 5796 5792 5789 5788 5787 5785 5780 5775 5772 5768 5764 5762 5760 5759 5759 5758 5757 5757 5757 5757 5756 5756 5755 5755 5754 5753 5752 5751 5751 5750 5750
5891 5857 5857 5869 5865 5857 5856 5850 5848 5842 5831 5825 5823 5823 5821 5816 5809 5801 5794 5789 5787 5785 5786 5786 5783 5779 5776 5773 5767 5765 5764 5761 5760 5760 5759 5758 5758 5758 5758 5756 5756 5755 5754 5753 5752 5752 5751 5751 5751
5888 5870 5875 5879 5879 5871 5861 5857 5860 5843 5827 5826 5820 5818 5818 5814 5809 5804 5799 5796 5793 5791 5789 5787 5785 5782 5778 5774 5771 5769 5767 5764 5762 5761 5760 5759 5759 5758 5758 5756 5755 5755 5754 5754 5753 5752 5752 5753 5754
5886 5884 5885 5882 5884 5877 5868 5863 5857 5850 5842 5845 5838 5830 5822 5816 5811 5809 5804 5801 5798 5795 5792 5790 5787 5782 5779 5776 5773 5771 5769 5766 5765 5762 5761 5760 5759 5759 5758 5757 5757 5756 5756 5755 5755 5754 5754 5755 5756
5882 5883 5889 5889 5886 5882 5875 5865 5859 5853 5857 5853 5844 5834 5826 5820 5817 5816 5812 5807 5803 5797 5795 5792 5788 5782 5779 5776 5774 5773 5771 5769 5767 5764 5762 5762 5761 5759 5759 5758 5758 5758 5757 5757 5756 5756 5756 5756 5757
5886 5887 5887 5887 5884 5881 5870 5866 5861 5856 5861 5851 5842 5834 5830 5826 5822 5818 5813 5808 5804 5800 5797 5794 5789 5784 5780 5777 5775 5774 5773 5770 5769 5766 5764 5763 5762 5761 5759 5759 5758 5759 5758 5758 5757 5757 5757 5757 5757
5893 5876 5876 5883 5884 5882 5873 5854 5858 5864 5862 5849 5843 5838 5834 5831 5827 5821 5817 5813 5809 5804 5801 5796 5792 5787 5782 5780 5778 5777 5775 5773 5770 5768 5765 5763 5763 5762 5760 5759 5759 5759 5759 5759 5758 5758 5757 5757 5758
5879 5865 5853 5875 5884 5883 5864 5838 5859 5871 5861 5849 5845 5841 5836 5833 5832 5828 5824 5819 5814 5809 5804 5800 5799 5792 5786 5783 5781 5780 5778 5775 5771 5768 5767 5765 5763 5762 5761 5760 5760 5760 5759 5759 5758 5757 5757 5757 5757
5859 5851 5854 5868 5887 5884 5868 5849 5862 5873 5863 5852 5849 5845 5839 5835 5834 5833 5830 5824 5819 5813 5808 5803 5800 5795 5791 5787 5784 5782 5779 5777 5774 5772 5769 5767 5765 5764 5762 5761 5761 5761 5760 5760 5759 5759 5757 5755 5756
5846 5853 5860 5866 5881 5880 5867 5862 5869 5875 5868 5858 5854 5849 5843 5838 5837 5837 5834 5830 5824 5818 5812 5807 5802 5798 5794 5790 5786 5783 5781 5779 5777 5774 5772 5769 5767 5766 5764 5762 5762 5762 5761 5760 5760 5758 5758 5757 5756
5864 5859 5859 5870 5886 5877 5867 5866 5871 5876 5872 5863 5857 5853 5847 5844 5846 5844 5839 5835 5828 5821 5815 5809 5804 5800 5796 5792 5787 5783 5781 5781 5779 5778 5775 5772 5770 5767 5765 5764 5763 5762 5761 5760 5760 5759 5757 5756 5758
5865 5856 5858 5872 5884 5875 5866 5867 5877 5876 5873 5871 5864 5858 5854 5850 5847 5844 5841 5837 5832 5824 5819 5813 5808 5804 5799 5796 5792 5789 5786 5785 5784 5782 5778 5775 5772 5769 5768 5765 5763 5763 5762 5760 5760 5758 5755 5755 5757
5860 5856 5858 5861 5874 5877 5864 5853 5865 5876 5878 5876 5874 5870 5865 5858 5851 5846 5843 5840 5836 5829 5823 5819 5813 5809 5804 5801 5796 5793 5789 5786 5783 5781 5778 5778 5775 5772 5770 5767 5765 5764 5763 5761 5760 5759 5756 5752 5755
5850 5871 5871 5867 5856 5849 5855 5828 5852 5867 5867 5870 5872 5872 5869 5866 5861 5853 5847 5843 5840 5836 5832 5826 5819 5813 5809 5804 5799 5793 5787 5783 5783 5783 5781 5780 5778 5775 5773 5770 5768 5766 5765 5763 5761 5760 5758 5754 5750
5862 5878 5872 5865 5853 5844 5850 5838 5845 5864 5854 5863 5871 5874 5875 5872 5868 5860 5855 5850 5847 5844 5837 5830 5823 5817 5812 5808 5803 5797 5792 5790 5789 5787 5782 5780 5779 5777 5775 5773 5770 5768 5766 5765 5763 5761 5758 5756 5753
5873 5868 5863 5859 5849 5823 5840 5836 5835 5857 5858 5865 5873 5876 5877 5876 5873 5867 5863 5857 5852 5848 5842 5835 5825 5819 5815 5810 5806 5800 5795 5792 5789 5786 5782 5780 5779 5779 5777 5775 5772 5769 5767 5766 5764 5762 5759 5757 5755
5861 5840 5819 5813 5814 5818 5847 5837 5841 5866 5877 5878 5876 5877 5879 5878 5873 5867 5862 5856 5852 5848 5843 5838 5829 5821 5817 5813 5808 5804 5799 5795 5790 5788 5785 5782 5780 5779 5778 5777 5773 5770 5768 5767 5765 5762 5760 5758 5755
5851 5843 5813 5795 5801 5818 5839 5829 5846 5872 5884 5886 5885 5883 5879 5877 5874 5869 5864 5858 5853 5850 5845 5839 5831 5824 5820 5815 5811 5807 5803 5799 5795 5792 5790 5786 5784 5783 5783 5779 5775 5772 5770 5768 5765 5763 5761 5760 5757
5841 5842 5854 5833 5821 5810 5821 5831 5848 5869 5871 5876 5878 5877 5874 5873 5873 5869 5864 5860 5854 5849 5845 5840 5833 5826 5822 5818 5813 5809 5805 5802 5799 5797 5793 5790 5788 5787 5784 5781 5777 5774 5771 5768 5766 5762 5761 5760 5757
5853 5850 5841 5825 5804 5797 5813 5819 5823 5841 5848 5859 5865 5867 5869 5872 5870 5866 5862 5859 5856 5851 5846 5841 5835 5828 5824 5819 5815 5812 5808 5804 5801 5798 5794 5792 5790 5788 5784 5780 5777 5774 5771 5768 5765 5762 5761 5758 5756
5837 5835 5833 5829 5826 5805 5798 5805 5843 5841 5848 5853 5858 5863 5865 5866 5866 5864 5861 5859 5854 5850 5845 5838 5833 5828 5823 5820 5816 5813 5809 5806 5802 5798 5795 5793 5790 5787 5783 5780 5777 5774 5771 5768 5764 5761 5759 5756 5754
5844 5838 5833 5810 5808 5817 5809 5806 5852 5848 5852 5853 5853 5856 5858 5860 5861 5860 5858 5854 5849 5844 5840 5835 5831 5827 5823 5820 5816 5812 5809 5805 5801 5798 5795 5793 5789 5786 5783 5780 5776 5773 5770 5767 5763 5759 5758 5754 5751